Montana Department of Transportation

Main Content

Accidents and Incidents Report

Hourly Weather Roundup

ASUS45 KTFX 011219
RWRMT 
MONTANA HOURLY WEATHER ROUNDUP
NATIONAL WEATHER SERVICE GREAT FALLS MT
619 AM MDT SAT NOV 1 2014

NOTE: "FAIR" INDICATES FEW OR NO CLOUDS BELOW 12000 FEET WITH NO
SIGNIFICANT WEATHER AND/OR OBSTRUCTIONS TO VISIBILITY.

* THESE STATIONS ARE NOT UNDER NWS QUALITY CONTROL. THEY DO NOT
   REPORT WEATHER SUCH AS PRECIPITATION OR FOG.

MTZ001.007-043-011300-
WEST OF THE DIVIDE
CITY           SKY/WX    TMP DP  RH WIND       PRES   REMARKS
KALISPELL      FOG       34  34 100 CALM      29.72F VSB 3/4  
MISSOULA       MOCLDY    36  36 100 CALM      29.72S 
BUTTE          CLOUDY    36  28  73 E5        29.73F WCI  32 
MULLAN PASS    FOG       36  36 100 N9        29.71F VSB M1/4 WCI  29 
* ESSEX        N/A       33  32  96 N/A        N/A   
* LINCOLN      N/A       28  27  96 S2         N/A   
* LOOKOUT PASS N/A       41  41 100 N7         N/A   
* POLSON       N/A       40  40 100 N/A        N/A   
* RONAN APT    PTCLDY    36  36 100 N/A        N/A   
* SEELEY LAKE  N/A       29  28  96 N3         N/A   
* THOMP F APT  PTCLDY    49  31  50 SE14G21    N/A   
* YAAK HILL    N/A       43  40  89 N/A        N/A   
--------------------------------

MTZ008-052.055-011300-
SOUTHWEST MONTANA
CITY           SKY/WX    TMP DP  RH WIND       PRES   REMARKS
DILLON         CLOUDY    41  27  58 SE5       29.71S 
W YELLOWSTONE  CLOUDY    32  28  85 W3        29.86F 
* THREE FORKS  CLOUDY    34  34 100 N/A        N/A   
* BOULDER HILL N/A       43  22  43 SW7        N/A   
* MONIDA PASS  N/A       43  28  56 E8G13      N/A   
* RAYNOLDS PAS N/A       47  32  56 S15G26     N/A   
* WHITEHALL    N/A       33  27  79 NE2        N/A   
* WISE RIVER   N/A       32  28  85 SW2        N/A   
--------------------------------

MTZ009.010-012-014-046-048-049-054-011300-
EAST SLOPES AND CENTRAL MONTANA
CITY           SKY/WX    TMP DP  RH WIND       PRES   REMARKS
CUT BANK       PTCLDY    34  28  79 N9        29.70F WCI  27 
GREAT FALLS    CLOUDY    37  32  82 SW6       29.69S WCI  32 
HELENA         CLOUDY    36  30  79 CALM      29.70F 
MALMSTROM AFB  MOCLDY    43  32  65 W5        29.71S 
* DEARBORN     N/A       35  31  85 S3         N/A   
* EAST GLACIER N/A       39  32  76 NE2        N/A   
* MONARCH      N/A       42  23  47 S1G6       N/A   
* SAINT MARY   N/A       34  29  82 SE3        N/A   
* SWEET GRASS  N/A       46  31  56 NW8        N/A   
* WHITE SULPH  N/A       40  24  53 NE8G13     N/A   WCI  35 
--------------------------------

MTZ011-013-016-021-035-040-045-047-050-051-011300-
NORTH CENTRAL MONTANA
CITY           SKY/WX    TMP DP  RH WIND       PRES   REMARKS
HAVRE          CLEAR     27  25  92 CALM      29.72S 
LEWISTOWN      PTCLDY    43  28  56 SE9       29.72S 
* N BAR RANCH  CLEAR     41  27  58 W6        29.75S 
* FORT BENTON  MOCLDY    34  30  85 CALM      29.72R 
* CHESTER      N/A       28  25  89 N2         N/A   
* DENTON       N/A       33  30  89 W4         N/A   
* GEYSER       N/A       41  31  68 S4         N/A   
* JUDITH GAP   N/A       40  29  65 SW6        N/A   WCI  36 
* LOMA         N/A       32  29  89 SW6        N/A   WCI  26 
--------------------------------

MTZ017.020-022.027-061-062-011300-
NORTHEAST MONTANA
CITY           SKY/WX    TMP DP  RH WIND       PRES   REMARKS
GLASGOW        CLOUDY    34  28  79 E12       29.72S WCI  25 
GLENDIVE       PTCLDY    28  25  89 N3        29.77R 
JORDAN         CLOUDY    28  27  96 W3        29.71S 
SIDNEY         CLEAR     28  19  69 CALM      29.79F 
WOLF POINT     PTCLDY    28  23  81 NE7       29.75S WCI  21 
* BEAVER HILL  N/A       32  26  79 SE12       N/A   WCI  23 
* CIRCLE       N/A       35  32  89 N/A        N/A   
* LINDSAY DVD  N/A       32  28  85 E4         N/A   
* NAVAJO       N/A       27  20  75 N/A        N/A   
* PLENTYWOOD A N/A       38 N/A N/A N/A        N/A   
* SACO         N/A       32  29  89 N/A        N/A   
--------------------------------

MTZ028.042-056.058-011300-
SOUTHCENTRAL AND SOUTHEASTMONTANA
CITY           SKY/WX    TMP DP  RH WIND       PRES   REMARKS
BAKER          CLEAR     30  27  89 SE9       29.77F WCI  22 
BILLINGS       CLOUDY    46  30  54 CALM      29.72S 
LIVINGSTON     MOCLDY    39  27  62 CALM      29.75R 
MILES CITY     MOCLDY    37  28  70 SE3       29.74R 
* LAUREL APT   CLOUDY    46  27  48 N/A        N/A   
* ROUNDUP APT  MOCLDY    43  30  60 N/A        N/A   
* ALZADA       N/A       32  28  85 E4         N/A   
* HYSHAM       N/A       49  28  44 NW1        N/A   
* LAME DEER    N/A       61  25  25 E5         N/A   
* REED POINT   N/A       36  33  89 W1         N/A   
* ROSCOE HILL  N/A       55  20  25 SW4G9      N/A   
--------------------------------

REGIONAL REPORTS...DAKOTAS
CITY           SKY/WX    TMP DP  RH WIND       PRES   REMARKS
WILLISTON      PTCLDY    30  19  64 CALM      29.80S 
DICKINSON      PTCLDY    30  19  64 S15       29.79F WCI  19 
BEACH          N/A       30  23  75 SE8       29.77F WCI  22 
CROSBY         CLEAR     32  21  64 S10       29.79F WCI  24 
TIOGA          CLEAR     28  19  69 E5        29.84S WCI  22 
BISMARCK       CLEAR     30  18  61 SE16      29.94F WCI  19 
GRAND FORKS    PTCLDY    30  18  61 S21G31    30.16F WCI  17 
FARGO          PTCLDY    30  18  61 S21G36    30.22F WCI  17 
BUFFALO SD     PTCLDY    32  23  69 SE7       29.74S WCI  25 
RAPID CITY     PTCLDY    36  28  73 SE7       29.83S WCI  30 
--------------------------------

REGIONAL REPORTS...WYOMING/IDAHO/WASHINGTON
CITY           SKY/WX    TMP DP  RH WIND       PRES   REMARKS
GILLETTE       CLOUDY    43  28  56 SE6       29.79F 
SHERIDAN       CLOUDY    37  30  76 N5        29.76S WCI  33 
CODY           CLOUDY    48  25  41 S5        29.79S 
YELLOWSTONE LA CLOUDY    30  28  92 CALM      29.92F 
SALMON         PTCLDY    32  28  85 S5        29.69R WCI  27 
MULLAN PASS    FOG       36  36 100 N9        29.71S VSB M1/4 WCI  29 
SAND POINT     N/A       45  45 100 CALM      29.74S 
SPOKANE        LGT RAIN  45  43  93 SE3       29.73F 
--------------------------------

REGIONAL REPORTS...ALBERTA
CITY           SKY/WX    TMP DP  RH WIND       PRES   REMARKS
CALGARY        MOCLDY    32  30  92 N8        29.76R WCI  25 
LETHBRIDGE     FAIR      34  32  92 NE8       29.73R WCI  27 
MEDICINE HAT   CLEAR     36  34  92 VRB2      29.72R 
EDMONTON       LGT RAIN  37  36  96 W7        29.79R WCI  32 
WATERTON GATE  N/A       36  30  79 NE1        N/A   
CARDSTON       N/A       34  30  85 SW5        N/A   WCI  29 
MILK RIVER     N/A       30  28  92 NW5        N/A   WCI  25 
--------------------------------

REGIONAL REPORTS...SASKATCHEWAN
CITY           SKY/WX    TMP DP  RH WIND       PRES   REMARKS
SWIFT CURRENT  CLEAR     37  32  82 SW10      29.69S WCI  30 
REGINA         N/A       28  21  75 SE15      29.75S WCI  16 
VAL MARIE      N/A       25  25 100 NE6        N/A   WCI  18 
ASSINIBOIA     N/A       30  27  89 SE8        N/A   WCI  22 
CORONACH       N/A       25  21  85 CALM       N/A   

--------------------------------